sat.trackr.live / text

‹ back to catalog

2024-199AK

NORAD 61768 · 2024-199AK

PAYLOAD ACTIVE UNKNOWN

§ Identity

Operator
Country
TBD
Launch date
2024-11-04
Launch site
VOSTO
Launch vehicle
Mass (kg)
RCS (m²)

External: N2YO · Heavens-Above · Gunter

§ Orbital elements

Epoch: 2026-05-25T03:45:37.056096Z

Period
92.99 min
Inclination
97.3000°
Eccentricity
0.0006168
Mean motion
15.48546250 rev/d
Perigee alt
416.8 km
Apogee alt
425.2 km
Semi-major
6,799.1 km
B*
4.1328e-4
RAAN
19.7092°
Arg perigee
32.8323°
Mean anomaly
327.3309°
Rev number
13,077

§ Raw data

2024-199AK1 61768U 24199AK  26145.15667889  .00021965  00000+0  41328-3 0  99942 61768  97.3000  19.7092 0006168  32.8323 327.3309 15.48546250130774

JSON: /api/v1/satellites/61768 · /tle

For live sub-satellite position, see the globe view (requires WebGL).

§ Visibility from observer

Set your observer location to see the next 7 days of passes ≥ 10°. The values pass through the URL so the page stays shareable.

No JS? Fill the form by hand. The geolocation button needs JavaScript.